EW5351 Weather Reports


time (UTC)temp
C
wind
direction
speed
KPH
gust
KPH
rain 1hr
cm
rain 24hr
cm
rain mn
cm
humidity
%
barometer
mb
20260507065118 13 317 1.6 9.7 0.00 0.18 0.00 85 1006.3
20260507064617 13 274 3.2 11.3 0.00 0.18 0.00 85 1006.4
20260507064116 13 331 3.2 14.5 0.00 0.18 0.00 84 1006.5
20260507063115 13 279 1.6 9.7 0.00 0.18 0.00 84 1006.5
20260507062115 13 275 1.6 6.4 0.00 0.18 0.00 84 1006.4
20260507061617 13 285 3.2 9.7 0.00 0.18 0.00 84 1006.2
20260507061115 13 274 4.8 14.5 0.00 0.18 0.00 84 1006.1
20260507060615 13 347 3.2 14.5 0.00 0.18 0.00 84 1006.3
20260507060116 13 273 3.2 9.7 0.00 0.18 0.00 84 1006.5
20260507055616 13 311 3.2 9.7 0.00 0.18 0.00 84 1006.4
20260507055112 13 333 3.2 16.1 0.00 0.18 0.00 85 1006.4
20260507054613 13 287 3.2 16.1 0.00 0.18 0.00 85 1006.5
20260507053114 14 229 3.2 12.9 0.00 0.18 0.00 86 1006.6
20260507052614 14 279 3.2 9.7 0.00 0.18 0.00 86 1006.6
20260507052112 14 290 3.2 14.5 0.00 0.18 0.00 86 1006.5
20260507051611 14 301 4.8 16.1 0.00 0.18 0.00 86 1006.3
20260507051112 14 331 3.2 16.1 0.00 0.18 0.00 87 1006.3
20260507050611 15 308 3.2 9.7 0.00 0.18 0.00 88 1006.4
20260507050113 15 280 3.2 17.7 0.00 0.18 0.00 89 1006.4
20260507045610 15 285 4.8 19.3 0.00 0.18 0.00 89 1006.4
20260507045111 15 253 4.8 19.3 0.03 0.18 0.00 89 1006.4
20260507044611 15 327 4.8 12.9 0.03 0.18 0.00 89 1006.4
20260507044109 15 344 3.2 12.9 0.03 0.18 0.00 90 1006.4
20260507043609 15 271 3.2 12.9 0.03 0.18 0.00 91 1006.2
20260507042607 15 269 3.2 11.3 0.03 0.18 0.00 91 1006.2
20260507042106 15 267 3.2 12.9 0.03 0.18 0.00 91 1006.3
20260507041605 15 250 3.2 12.9 0.03 0.18 0.00 91 1006.4
20260507040604 15 252 3.2 14.5 0.03 0.18 0.00 91 1006.5
20260507040104 15 273 3.2 14.5 0.03 0.18 0.00 91 1006.6
20260507035606 15 261 3.2 11.3 0.03 0.18 0.18 91 1006.7
20260507035103 15 252 3.2 11.3 0.00 0.15 0.15 91 1006.6
20260507034602 15 261 4.8 17.7 0.00 0.15 0.15 91 1006.5
20260507034100 15 0 4.8 17.7 0.00 0.15 0.15 91 1006.4
20260507033601 15 230 4.8 14.5 0.00 0.15 0.15 91 1006.3
20260507032600 15 246 4.8 22.5 0.00 0.15 0.15 91 1006.2
20260507032100 15 252 4.8 16.1 0.00 0.15 0.15 91 1006.1
20260507031600 15 222 4.8 19.3 0.00 0.15 0.15 91 1006.0
20260507031102 15 230 4.8 19.3 0.00 0.15 0.15 91 1005.9
20260507030601 15 223 3.2 14.5 0.00 0.15 0.15 91 1005.8
20260507030101 15 263 4.8 16.1 0.00 0.15 0.15 91 1005.8
20260507025559 15 236 4.8 16.1 0.00 0.15 0.15 91 1005.7
20260507024558 15 252 4.8 22.5 0.00 0.15 0.15 91 1005.9
20260507024058 15 265 4.8 22.5 0.00 0.15 0.15 91 1006.1
20260507023058 15 216 3.2 11.3 0.00 0.15 0.15 91 1006.0
20260507022559 15 192 3.2 11.3 0.00 0.15 0.15 91 1005.9
20260507022058 15 303 3.2 14.5 0.00 0.15 0.15 91 1005.9
20260507021558 15 255 3.2 14.5 0.00 0.15 0.15 91 1005.9
20260507020559 15 206 3.2 16.1 0.00 0.15 0.15 91 1006.1
20260507020057 15 178 4.8 16.1 0.00 0.15 0.15 91 1005.8
20260507015557 15 187 3.2 16.1 0.00 0.15 0.15 91 1005.8
20260507015057 15 195 4.8 12.9 0.00 0.15 0.15 91 1006.0
20260507014557 15 211 4.8 12.9 0.00 0.15 0.15 91 1006.0
20260507014054 15 194 4.8 12.9 0.00 0.15 0.15 91 1006.0
20260507013555 15 172 4.8 16.1 0.00 0.15 0.15 91 1006.1
20260507013053 15 200 6.4 20.9 0.00 0.15 0.15 91 1006.1
20260507012555 15 192 4.8 20.9 0.00 0.15 0.15 91 1006.1
20260507012053 15 202 4.8 19.3 0.00 0.15 0.15 91 1006.2
20260507011553 14 185 4.8 16.1 0.00 0.15 0.15 91 1006.3
20260507010553 14 226 4.8 17.7 0.00 0.15 0.15 91 1006.4
20260507005550 14 211 6.4 19.3 0.00 0.15 0.15 91 1006.5
20260507005051 14 215 6.4 19.3 0.00 0.15 0.15 91 1006.5
20260507004549 14 132 6.4 20.9 0.03 0.15 0.15 91 1006.4
20260507004049 14 188 6.4 20.9 0.03 0.15 0.15 90 1006.3
20260507003550 14 193 4.8 16.1 0.03 0.15 0.15 90 1006.4
20260507003048 14 184 6.4 14.5 0.03 0.15 0.15 90 1006.4
20260507002547 14 213 6.4 16.1 0.03 0.15 0.15 90 1006.4
20260507002048 14 196 6.4 17.7 0.05 0.15 0.15 90 1006.3
20260507001548 15 144 6.4 17.7 0.05 0.15 0.15 90 1006.3
20260507001049 15 231 4.8 14.5 0.05 0.15 0.15 90 1006.2
20260507000548 15 237 4.8 14.5 0.05 0.15 0.15 90 1006.1
20260507000048 15 159 6.4 20.9 0.05 0.15 0.15 90 1006.0
20260506235548 15 229 6.4 27.4 0.05 0.15 0.15 90 1006.1
20260506234546 15 202 8.0 22.5 0.03 0.13 0.13 90 1006.2
20260506234046 15 236 8.0 22.5 0.03 0.13 0.13 89 1006.0
20260506233546 15 244 8.0 20.9 0.03 0.13 0.13 89 1006.0
20260506233046 15 220 6.4 25.7 0.03 0.13 0.13 89 1005.9
20260506232546 15 155 6.4 25.7 0.03 0.13 0.13 89 1006.0
20260506232048 15 136 6.4 17.7 0.00 0.10 0.13 89 1006.0
20260506231546 15 154 6.4 17.7 0.00 0.10 0.10 89 1006.0
20260506231047 15 234 6.4 16.1 0.00 0.10 0.10 88 1006.0
20260506230546 15 140 6.4 17.7 0.00 0.10 0.10 88 1006.0
20260506230046 15 186 8.0 17.7 0.03 0.10 0.10 88 1006.1
20260506225546 15 230 8.0 17.7 0.03 0.10 0.10 88 1006.0
20260506225048 15 218 6.4 14.5 0.03 0.10 0.10 88 1006.1
20260506224546 16 179 4.8 12.9 0.03 0.10 0.10 88 1006.1
20260506224046 16 222 6.4 16.1 0.03 0.10 0.10 87 1006.3
20260506223547 16 227 6.4 17.7 0.03 0.10 0.10 87 1006.2
20260506223045 16 182 6.4 17.7 0.03 0.10 0.10 87 1006.3
20260506222548 16 185 4.8 17.7 0.03 0.10 0.10 87 1006.4
20260506222046 16 217 4.8 17.7 0.03 0.10 0.10 87 1006.5
20260506221546 16 198 4.8 16.1 0.03 0.10 0.10 87 1006.5
20260506221046 16 189 6.4 16.1 0.03 0.10 0.10 86 1006.5
20260506220546 16 137 6.4 17.7 0.03 0.10 0.10 86 1006.5
20260506220046 16 229 6.4 17.7 0.00 0.08 0.08 86 1006.6
20260506215545 16 209 8.0 25.7 0.03 0.08 0.08 85 1006.7
20260506214547 16 158 6.4 16.1 0.03 0.08 0.08 84 1007.0
20260506214045 17 221 6.4 17.7 0.03 0.08 0.08 84 1007.0
20260506213544 17 182 6.4 22.5 0.03 0.08 0.08 84 1007.1
20260506213043 17 242 8.0 22.5 0.03 0.08 0.08 84 1007.0
20260506212544 17 215 8.0 29.0 0.03 0.08 0.08 83 1007.0
20260506212043 17 206 8.0 29.0 0.03 0.08 0.08 83 1007.0
20260506211042 17 242 8.0 22.5 0.03 0.08 0.08 83 1007.0
20260506210042 16 141 9.7 30.6 0.03 0.08 0.08 82 1007.1
20260506205539 17 214 11.3 25.7 0.00 0.05 0.05 82 1007.0
20260506205039 17 205 9.7 25.7 0.03 0.05 0.05 81 1007.1
20260506204540 17 130 8.0 25.7 0.03 0.05 0.05 81 1007.3
20260506204039 17 199 8.0 22.5 0.03 0.05 0.05 80 1007.3
20260506203542 17 203 8.0 22.5 0.03 0.05 0.05 79 1007.3
20260506203040 17 121 8.0 20.9 0.03 0.05 0.05 78 1007.4
20260506202539 17 204 9.7 30.6 0.03 0.05 0.05 78 1007.3
20260506202037 17 142 9.7 30.6 0.03 0.05 0.05 78 1007.2
20260506201538 17 278 8.0 22.5 0.05 0.05 0.05 77 1007.2
20260506201038 17 223 8.0 20.9 0.05 0.05 0.05 77 1007.0
20260506200038 18 244 8.0 20.9 0.05 0.05 0.05 76 1007.0
20260506195538 18 188 8.0 25.7 0.05 0.05 0.05 75 1007.0
20260506194537 18 226 9.7 22.5 0.03 0.03 0.03 74 1007.2
20260506194038 18 150 8.0 22.5 0.03 0.03 0.03 73 1007.5
20260506193535 18 221 8.0 27.4 0.03 0.03 0.03 71 1007.4
20260506192535 19 200 8.0 22.5 0.03 0.03 0.03 69 1007.4
20260506192036 19 143 8.0 22.5 0.03 0.03 0.03 68 1007.3
20260506191537 20 204 8.0 33.8 0.00 0.00 0.00 67 1007.3
20260506191035 20 152 8.0 33.8 0.00 0.00 0.00 66 1007.3
20260506190036 20 178 9.7 25.7 0.00 0.00 0.00 62 1007.2
20260506185537 20 137 8.0 29.0 0.00 0.00 0.00 62 1007.2
20260506184534 21 256 11.3 29.0 0.00 0.00 0.00 60 1007.3
20260506184034 21 213 9.7 29.0 0.00 0.00 0.00 60 1007.3
20260506183533 21 260 9.7 22.5 0.00 0.00 0.00 58 1007.4
20260506183035 21 237 11.3 27.4 0.00 0.00 0.00 57 1007.4
20260506182534 21 124 9.7 27.4 0.00 0.00 0.00 57 1007.3
20260506182033 21 263 9.7 25.7 0.00 0.00 0.00 56 1007.4
20260506181533 22 207 11.3 25.7 0.00 0.00 0.00 56 1007.5
20260506181033 22 256 11.3 25.7 0.00 0.00 0.00 55 1007.4
20260506180533 22 115 9.7 33.8 0.00 0.00 0.00 55 1007.4
20260506180034 22 217 9.7 33.8 0.00 0.00 0.00 55 1007.6
20260506175533 22 181 9.7 27.4 0.00 0.00 0.00 54 1007.6
20260506174536 22 248 9.7 29.0 0.00 0.00 0.00 55 1007.8
20260506174032 22 190 11.3 29.0 0.00 0.00 0.00 55 1007.8
20260506173532 22 209 9.7 25.7 0.00 0.00 0.00 56 1007.9
20260506172533 22 185 9.7 27.4 0.00 0.00 0.00 57 1007.9
20260506172032 22 113 9.7 27.4 0.00 0.00 0.00 57 1007.9
20260506171534 22 219 9.7 27.4 0.00 0.00 0.00 57 1007.9
20260506171035 22 256 11.3 27.4 0.00 0.00 0.00 57 1007.8
20260506170533 22 167 9.7 29.0 0.00 0.00 0.00 58 1008.0
20260506165534 22 213 12.9 35.4 0.00 0.00 0.00 57 1008.1
20260506165031 22 203 11.3 35.4 0.00 0.00 0.00 57 1008.3
20260506164531 22 148 9.7 25.7 0.00 0.00 0.00 57 1008.3
20260506164032 22 161 9.7 22.5 0.00 0.00 0.00 56 1008.3
20260506163532 22 150 9.7 22.5 0.00 0.00 0.00 56 1008.3
20260506163033 22 127 8.0 20.9 0.00 0.00 0.00 56 1008.4
20260506162531 22 169 8.0 22.5 0.00 0.00 0.00 56 1008.5
20260506161531 22 203 8.0 20.9 0.00 0.00 0.00 56 1008.7
20260506160529 22 164 8.0 20.9 0.00 0.00 0.00 56 1008.9
20260506160030 22 187 6.4 22.5 0.00 0.00 0.00 56 1009.0
20260506155528 22 127 8.0 24.1 0.00 0.00 0.00 56 1009.1
20260506155029 22 248 9.7 32.2 0.00 0.00 0.00 56 1009.1
20260506154529 22 159 9.7 32.2 0.00 0.00 0.00 56 1009.2
20260506154028 22 153 9.7 24.1 0.00 0.00 0.00 55 1009.2
20260506153528 22 304 11.3 24.1 0.00 0.00 0.00 55 1009.3
20260506153029 22 182 11.3 24.1 0.00 0.00 0.00 54 1009.3
20260506152530 22 109 11.3 27.4 0.00 0.00 0.00 55 1009.4
20260506152030 22 224 12.9 35.4 0.00 0.00 0.00 55 1009.4
20260506151529 23 258 11.3 35.4 0.00 0.00 0.00 54 1009.3
20260506151028 23 252 9.7 29.0 0.00 0.00 0.00 55 1009.5
20260506150529 22 184 8.0 29.0 0.00 0.00 0.00 56 1009.5
20260506150028 22 250 8.0 19.3 0.00 0.00 0.00 57 1009.6
20260506145528 22 135 9.7 20.9 0.00 0.00 0.00 57 1009.6
20260506144029 22 211 9.7 27.4 0.00 0.00 0.00 58 1009.5
20260506143528 21 223 8.0 19.3 0.00 0.00 0.00 59 1009.5
20260506143029 21 210 9.7 24.1 0.00 0.00 0.00 59 1009.5
20260506142528 21 212 8.0 24.1 0.00 0.00 0.00 59 1009.4
20260506142029 21 145 8.0 20.9 0.00 0.00 0.00 60 1009.5
20260506141029 21 217 8.0 19.3 0.00 0.00 0.00 61 1009.5
20260506140529 21 190 8.0 20.9 0.00 0.00 0.00 63 1009.7
20260506135528 20 130 6.4 20.9 0.00 0.00 0.00 65 1009.6
20260506134529 20 231 6.4 22.5 0.00 0.00 0.00 66 1009.5
20260506134029 19 244 6.4 22.5 0.00 0.00 0.00 67 1009.9
20260506133526 19 175 8.0 19.3 0.00 0.00 0.00 67 1010.2
20260506133027 19 147 8.0 19.3 0.00 0.00 0.00 68 1010.2
20260506132528 19 243 8.0 22.5 0.00 0.00 0.00 68 1010.2
20260506132027 19 223 8.0 24.1 0.00 0.00 0.00 67 1010.1
20260506131026 19 5 9.7 24.1 0.00 0.00 0.00 68 1010.1
20260506130527 19 253 9.7 24.1 0.00 0.00 0.00 68 1010.0
20260506130026 19 135 8.0 24.1 0.00 0.00 0.00 68 1010.1
20260506125528 19 229 8.0 19.3 0.00 0.00 0.00 69 1010.2
20260506125024 18 214 8.0 20.9 0.00 0.00 0.00 70 1010.2
20260506124525 18 216 8.0 20.9 0.00 0.00 0.00 70 1010.2
20260506124024 18 220 8.0 20.9 0.00 0.00 0.00 71 1010.4
20260506123522 18 252 8.0 19.3 0.00 0.00 0.00 72 1010.4
20260506123022 18 202 8.0 20.9 0.00 0.00 0.00 72 1010.3
20260506122522 18 213 8.0 20.9 0.00 0.00 0.00 72 1010.2
20260506122021 18 250 6.4 19.3 0.00 0.00 0.00 72 1010.1
20260506121521 17 198 4.8 14.5 0.00 0.00 0.00 74 1010.2
20260506121018 17 279 4.8 14.5 0.00 0.00 0.00 75 1010.2
20260506120517 17 226 6.4 17.7 0.00 0.00 0.00 75 1010.4
20260506120016 17 175 6.4 17.7 0.00 0.00 0.00 75 1010.5
20260506115517 17 162 6.4 17.7 0.00 0.00 0.00 76 1010.6
20260506115017 17 198 6.4 17.7 0.00 0.00 0.00 76 1010.4
20260506114017 17 188 6.4 17.7 0.00 0.00 0.00 75 1010.8
20260506113515 17 169 6.4 17.7 0.00 0.00 0.00 76 1010.8
20260506112514 17 248 6.4 17.7 0.00 0.00 0.00 75 1010.6
20260506112014 17 215 4.8 16.1 0.00 0.00 0.00 75 1010.5
20260506111516 17 169 6.4 19.3 0.00 0.00 0.00 75 1010.7
20260506111013 17 178 8.0 24.1 0.00 0.00 0.00 75 1010.6
20260506110514 17 188 6.4 24.1 0.00 0.00 0.00 76 1010.5
20260506110015 16 158 4.8 17.7 0.00 0.00 0.00 77 1010.5
20260506105514 16 138 4.8 16.1 0.00 0.00 0.00 78 1010.5
20260506105014 16 267 4.8 14.5 0.00 0.00 0.00 77 1010.5
20260506104512 16 288 6.4 16.1 0.00 0.00 0.00 77 1010.5
20260506104012 16 196 6.4 16.1 0.00 0.00 0.00 77 1010.6
20260506103512 16 125 4.8 17.7 0.00 0.00 0.00 77 1010.7
20260506103012 16 213 4.8 17.7 0.00 0.00 0.00 77 1010.7
20260506102514 16 290 4.8 17.7 0.00 0.00 0.00 77 1010.7
20260506102013 16 195 4.8 14.5 0.00 0.00 0.00 77 1010.6
20260506101513 16 217 6.4 17.7 0.00 0.00 0.00 77 1010.6
20260506101014 16 203 4.8 17.7 0.00 0.00 0.00 78 1010.5
20260506095508 16 187 6.4 14.5 0.00 0.00 0.00 78 1010.4
20260506095010 16 188 4.8 16.1 0.00 0.00 0.00 78 1010.2
20260506094508 16 183 4.8 16.1 0.00 0.00 0.00 78 1010.3
20260506094006 16 173 4.8 14.5 0.00 0.00 0.00 77 1010.4
20260506093507 16 221 4.8 14.5 0.00 0.00 0.00 77 1010.5
20260506092507 16 165 3.2 9.7 0.00 0.00 0.00 77 1010.4
20260506092007 16 245 3.2 14.5 0.00 0.00 0.00 77 1010.4
20260506091504 16 200 4.8 14.5 0.00 0.00 0.00 77 1010.3
20260506091005 16 206 4.8 24.1 0.00 0.00 0.00 77 1010.3
20260506090504 16 198 4.8 24.1 0.00 0.00 0.00 77 1010.4
20260506090004 16 163 4.8 14.5 0.00 0.00 0.00 76 1010.4
20260506085500 16 152 6.4 16.1 0.00 0.00 0.00 76 1010.4
20260506085000 16 165 6.4 19.3 0.00 0.00 0.00 76 1010.4
20260506084501 16 202 4.8 19.3 0.00 0.00 0.00 77 1010.4
20260506083459 16 147 6.4 22.5 0.00 0.00 0.00 76 1010.4
20260506083001 16 186 4.8 17.7 0.00 0.00 0.00 76 1010.5
20260506082457 16 223 6.4 17.7 0.00 0.00 0.00 76 1010.4
20260506081958 16 196 6.4 16.1 0.00 0.00 0.00 76 1010.2
20260506081459 16 177 8.0 16.1 0.00 0.00 0.00 76 1010.2
20260506080958 16 149 6.4 14.5 0.00 0.00 0.00 76 1010.3
20260506080457 16 217 6.4 19.3 0.00 0.00 0.00 75 1010.3
20260506073459 16 198 6.4 19.3 0.00 0.00 0.00 74 1010.2
20260506072959 16 172 6.4 17.7 0.00 0.00 0.00 74 1010.2
20260506072457 16 179 6.4 14.5 0.00 0.00 0.00 74 1010.2
20260506071957 16 206 4.8 14.5 0.00 0.00 0.00 73 1010.1
20260506071500 16 159 4.8 16.1 0.00 0.00 0.00 73 1010.1
20260506070958 16 174 6.4 17.7 0.00 0.00 0.00 72 1010.1